User: anonymous   Login
Location: Coupvray
(48.8929°N, 2.7967°E)
Time: 12:32:23
(UTC+00:00)
Language:

Altair 2 - Orbit

View from above orbital plane
View from above orbital plane
View from above satellite
View from above satellite

Ground track
Ground track

The orbit data is extracted from the following two-line orbital elements,

1  2180U 66041B   21137.79233077  .00000071  00000-0  39852-4 0  9999
2  2180  90.1776  40.8907 0080956  47.5044 313.2937 14.00157419803903
Epoch (UTC): 17 May 2021 19:00:57
Eccentricity: 0.0080956
inclination: 90.1776°
perigee height: 834 km
apogee height: 952 km
right ascension of ascending node: 40.8907°
argument of perigee: 47.5044°
revolutions per day: 14.00157419
mean anomaly at epoch: 313.2937°
orbit number at epoch: 80390

The dashed part of the orbit path shows where the satellite is in the earth's shadow,  

DLR